Regional Weather Roundup
Issued by NWS Nashville, TN

Home | Current Version | Previous Version | Text Only | Print | Product List | Glossary On
Versions: 1 2 3 4 5 6 7 8 9 10 11 12 13 14 15 16 17 18 19 20 21 22 23 24 25 26 27 28 29 30 31 32 33 34 35 36 37 38 39 40 41 42 43 44 45 46 47 48 49 50
000
ASUS44 KOHX 200210
RWROHX
MIDDLE TENNESSEE HOURLY WEATHER ROUNDUP
NATIONAL WEATHER SERVICE NASHVILLE TN
800 PM CST MON FEB 19 2018

NOTE: "FAIR" INDICATES FEW OR NO CLOUDS BELOW 12,000 FEET WITH
NO SIGNIFICANT WEATHER AND/OR OBSTRUCTIONS TO VISIBILITY.

* THESE REPORTS ARE NOT UNDER NWS QUALITY CONTROL AND MAY NOT
  REPORT WEATHER SUCH AS PRECIPITATION AND FOG.


TNZ005>011-023>034-057-059-062>066-078-080-200300
...NORTHERN MIDDLE TENNESSEE...

CITY           SKY/WX    TMP DP  RH WIND       PRES   REMARKS
CLARKSVILLE      N/A     67  55  65 S9        30.09F
CROSSVILLE     CLOUDY    60  56  86 S8G16     30.25S
GALLATIN       CLOUDY    66  55  68 SE3       30.17S
NASHVILLE      MOCLDY    67  55  65 S8        30.15S
PORTLAND       PTCLDY    66  57  72 S6        30.13F
SMYRNA           N/A     62  56  80 S5        30.17R
SPARTA         PTCLDY    64  57  77 S8        30.20S
SPRINGFIELD    PTCLDY    68  57  68 S7        30.11S
WEST NASHVILLE CLEAR     68  57  68 SE5       30.12S
$$
TNZ056-058-060-061-075>077-079-093>097-200300
...SOUTHERN MIDDLE TENNESSEE...

CITY           SKY/WX    TMP DP  RH WIND       PRES   REMARKS
COLUMBIA       CLEAR     68  61  77 S6G14     30.13S
FAYETTEVILLE   MOCLDY    68  55  64 S8        30.19R
MCMINNVILLE    CLEAR     64  57  77 VRB5      30.20R
PULASKI        CLOUDY    66  57  72 SE6       30.17R
SHELBYVILLE    MOCLDY    68  55  64 S7        30.18R
TULLAHOMA      PTCLDY    68  54  60 S9        30.19R
WINCHESTER     CLEAR     66  54  63 S13       30.20S
$$


...KEY TO REMARKS...
VSB - VISIBILITY IN MILES
WCI - WIND CHILL INDEX
HX  - HEAT INDEX




USA.gov is the U.S. government's official web portal to all federal, state and local government web resources and services.